Location: Berduj
(43.0019°N, 22.3781°E)
Time: 02:09:44
(UTC+00:00)

Nadezhda 3 Rocket - Pass Details

Date: 19 October 2019
Orbit: 957 x 999 km, 82.9° (Epoch: 16 November)

Event Time Altitude Azimuth Distance (km) Brightness Sun altitude
Rises 16:21:05 0° 194° (SSW) 3,667 7.3 -7.8°
Reaches altitude 10° 16:23:36 10° 197° (SSW) 2,729 6.7 -8.3°
Maximum altitude 16:29:50 68° 279° (W) 1,063 4.5 -9.4°
Drops below altitude 10° 16:36:10 10° 3° (N) 2,771 6.3 -10.6°
Sets 16:38:45 0° 6° (N) 3,728 6.9 -11.1°
